Weather History for Middletown, OH

Change the Weather History Date:

Monday, February 25, 2013

  Actual Average (KDAY) Record (KDAY)
Temperature  
Mean Temperature 34 °F 34 °F  
Max Temperature 47 °F 42 °F 73 °F (2000)
Min Temperature 20 °F 25 °F -9 °F (1900)
Degree Days  
Heating Degree Days 32 31  
Month to date heating degree days 860  
Since 1 July heating degree days 4183  
Cooling Degree Days 0 0  
Month to date cooling degree days 0  
Year to date cooling degree days 0  
Moisture  
Dew Point 26 °F    
Average Humidity 78    
Maximum Humidity 100    
Minimum Humidity 53    
Precipitation  
Precipitation 0.00 in 0.08 in 1.86 in (1961)
Month to date precipitation 1.99  
Year to date precipitation 4.70  
Snow  
Snow 0.00 in 0.20 in 3.80 in (1993)
Month to date snowfall 5.3  
Since 1 July snowfall 18.7  
Snow Depth -    
Sea Level Pressure  
Sea Level Pressure 30.11 in    
Wind  
Wind Speed 4 mph (ENE)    
Max Wind Speed 14 mph    
Max Gust Speed 22 mph    
Visibility 9 miles    
Events      
T = Trace of Precipitation, MM = Missing Value Source: NWS Daily Summary

Daily Weather History Graph

Daily Weather History Graph

Search for Another Location

Airport:

Trip Planner

Search our weather history database for the weather conditions in past years. The results will help you decide how hot, cold, wet, or windy it might be!

Date:

Astronomy

Feb. 25, 2013 Rise Set
Actual Time 7:15 AM EST 6:25 PM EST
Civil Twilight 6:48 AM EST 6:52 PM EST
Nautical Twilight 6:17 AM EST 7:24 PM EST
Astronomical Twilight 5:46 AM EST 7:55 PM EST
Moon 6:37 PM EST (2/25) 6:45 AM EST (2/25)
Length of Visible Light 12h 04m
Length of Day
11h 09m
Full, 100% of the Moon is Illuminated
Feb 25
Full
Feb 25
Full
Mar 4
Last Quarter
Mar 11
New
Mar 19
First Quarter

Hourly Weather History & Observations

Time (EST) Temp. Windchill Dew Point Humidity Pressure Visibility Wind Dir Wind Speed Gust Speed Precip Events Conditions
12:15 AM 25.3 °F - 25.0 °F 99% 30.16 in 10.0 mi Calm Calm - N/A   Clear
12:35 AM 25.3 °F - 25.2 °F 99% 30.16 in 10.0 mi Calm Calm - N/A   Clear
12:55 AM 25.3 °F - 25.2 °F 99% 30.17 in 10.0 mi Calm Calm - N/A   Clear
1:15 AM 24.1 °F - 23.9 °F 99% 30.16 in 10.0 mi Calm Calm - N/A   Clear
1:35 AM 25.3 °F - 25.3 °F 100% 30.16 in 10.0 mi Calm Calm - N/A   Clear
1:55 AM 25.3 °F - 25.3 °F 100% 30.16 in 7.0 mi Calm Calm - N/A   Clear
2:15 AM 22.8 °F - 22.6 °F 99% 30.16 in 10.0 mi Calm Calm - N/A   Clear
2:35 AM 22.8 °F - 22.8 °F 100% 30.16 in 10.0 mi Calm Calm - N/A   Clear
2:55 AM 22.8 °F 18.2 °F 22.6 °F 99% 30.16 in 10.0 mi NNE 3.5 mph - N/A   Clear
3:15 AM 22.3 °F - 22.1 °F 99% 30.16 in 10.0 mi Calm Calm - N/A   Clear
3:35 AM 22.8 °F - 22.8 °F 100% 30.15 in 7.0 mi Calm Calm - N/A   Clear
3:55 AM 21.6 °F - 21.6 °F 100% 30.15 in 7.0 mi Calm Calm - N/A   Clear
4:15 AM 21.0 °F - 21.0 °F 100% 30.15 in 7.0 mi Calm Calm - N/A   Clear
4:35 AM 21.0 °F - 21.0 °F 100% 30.16 in 7.0 mi Calm Calm - N/A   Clear
4:55 AM 21.2 °F - 21.2 °F 100% 30.17 in 7.0 mi Calm Calm - N/A   Clear
5:15 AM 21.0 °F 16.2 °F 21.0 °F 100% 30.18 in 7.0 mi NNE 3.5 mph - N/A   Clear
5:35 AM 21.6 °F - 21.6 °F 100% 30.19 in 7.0 mi Calm Calm - N/A   Clear
5:55 AM 21.0 °F - 21.0 °F 100% 30.20 in 7.0 mi Calm Calm - N/A   Clear
6:15 AM 20.3 °F - 20.3 °F 100% 30.20 in 7.0 mi Calm Calm - N/A   Clear
6:35 AM 21.0 °F 16.2 °F 21.0 °F 100% 30.20 in 7.0 mi NNE 3.5 mph - N/A   Clear
6:55 AM 20.8 °F 16.0 °F 20.8 °F 100% 30.20 in 7.0 mi NNE 3.5 mph - N/A   Clear
7:15 AM 20.3 °F - 20.3 °F 100% 30.20 in 7.0 mi Calm Calm - N/A   Clear
7:35 AM 20.3 °F 13.8 °F 20.3 °F 100% 30.20 in 5.0 mi NNE 4.6 mph - N/A   Clear
7:55 AM 21.6 °F - 21.6 °F 100% 30.20 in 5.0 mi Calm Calm - N/A   Clear
8:15 AM 25.2 °F - 25.2 °F 100% 30.20 in 4.0 mi Calm Calm - N/A   Clear
8:35 AM 27.9 °F - 27.9 °F 100% 30.20 in 5.0 mi Calm Calm - N/A   Clear
8:55 AM 27.9 °F 22.6 °F 27.1 °F 97% 30.19 in 7.0 mi NE 4.6 mph - N/A   Clear
9:15 AM 30.2 °F 24.3 °F 27.7 °F 90% 30.19 in 10.0 mi NE 5.8 mph - N/A   Clear
9:35 AM 32.5 °F 28.1 °F 29.3 °F 88% 30.19 in 10.0 mi NE 4.6 mph - N/A   Clear
9:55 AM 34.0 °F 31.0 °F 29.7 °F 84% 30.19 in 10.0 mi East 3.5 mph - N/A   Clear
10:15 AM 37.6 °F 30.5 °F 28.2 °F 69% 30.18 in 10.0 mi ESE 10.4 mph - N/A   Clear
10:35 AM 37.6 °F 30.5 °F 27.0 °F 66% 30.18 in 10.0 mi East 10.4 mph - N/A   Clear
10:55 AM 37.8 °F 30.7 °F 26.6 °F 64% 30.18 in 10.0 mi East 10.4 mph - N/A   Clear
11:15 AM 38.8 °F 33.2 °F 27.1 °F 63% 30.19 in 10.0 mi ESE 8.1 mph - N/A   Clear
11:35 AM 39.9 °F 32.5 °F 27.0 °F 60% 30.18 in 10.0 mi ESE 12.7 mph 17.3 mph N/A   Clear
11:55 AM 40.1 °F 33.6 °F 26.8 °F 59% 30.17 in 10.0 mi East 10.4 mph - N/A   Clear
12:15 PM 40.3 °F 34.4 °F 26.4 °F 58% 30.16 in 10.0 mi East 9.2 mph 17.3 mph N/A   Clear
12:35 PM 40.8 °F 35.0 °F 27.0 °F 58% 30.14 in 10.0 mi ESE 9.2 mph - N/A   Clear
12:55 PM 41.4 °F 35.7 °F 27.3 °F 57% 30.13 in 10.0 mi East 9.2 mph - N/A   Clear
1:15 PM 41.5 °F 34.6 °F 27.7 °F 58% 30.12 in 10.0 mi ENE 12.7 mph 17.3 mph N/A   Clear
1:35 PM 42.8 °F 37.0 °F 28.2 °F 56% 30.11 in 10.0 mi East 10.4 mph - N/A   Clear
1:55 PM 43.9 °F 37.9 °F 29.7 °F 57% 30.10 in 10.0 mi East 11.5 mph 21.9 mph N/A   Clear
2:15 PM 45.0 °F 40.1 °F 29.7 °F 55% 30.09 in 10.0 mi ENE 9.2 mph 17.3 mph N/A   Clear
2:35 PM 45.1 °F 40.3 °F 28.9 °F 53% 30.08 in 10.0 mi ESE 9.2 mph - N/A   Clear
2:55 PM 43.3 °F 37.7 °F 28.2 °F 55% 30.08 in 10.0 mi East 10.4 mph 16.1 mph N/A   Clear
3:15 PM 46.2 °F 40.8 °F 30.0 °F 53% 30.07 in 10.0 mi East 11.5 mph - N/A   Clear
3:35 PM 47.7 °F - 31.5 °F 53% 30.05 in 10.0 mi ENE 13.8 mph 18.4 mph N/A   Clear
3:55 PM 47.7 °F - 32.0 °F 55% 30.05 in 10.0 mi ENE 13.8 mph - N/A   Clear
4:15 PM 46.2 °F 40.5 °F 30.4 °F 54% 30.04 in 10.0 mi East 12.7 mph 18.4 mph N/A   Clear
4:35 PM 45.1 °F 39.9 °F 30.2 °F 56% 30.04 in 10.0 mi East 10.4 mph - N/A   Clear
4:55 PM 45.1 °F 38.8 °F 30.0 °F 55% 30.04 in 10.0 mi East 13.8 mph - N/A   Clear
5:15 PM 45.1 °F 39.1 °F 30.7 °F 57% 30.03 in 10.0 mi East 12.7 mph - N/A   Clear
5:35 PM 45.1 °F 39.9 °F 31.1 °F 58% 30.04 in 10.0 mi East 10.4 mph 16.1 mph N/A   Clear
5:55 PM 41.5 °F 35.4 °F 28.4 °F 60% 30.04 in 10.0 mi East 10.4 mph - N/A   Clear
6:15 PM 40.6 °F 33.4 °F 28.2 °F 61% 30.04 in 10.0 mi East 12.7 mph - N/A   Clear
6:35 PM 39.4 °F 33.8 °F 28.6 °F 65% 30.05 in 10.0 mi East 8.1 mph - N/A   Clear
6:55 PM 38.1 °F 33.7 °F 28.6 °F 69% 30.04 in 10.0 mi East 5.8 mph - N/A   Clear
7:15 PM 37.6 °F 31.6 °F 30.9 °F 77% 30.03 in 10.0 mi ENE 8.1 mph - N/A   Clear
7:35 PM 37.6 °F 31.6 °F 30.0 °F 74% 30.02 in 10.0 mi NE 8.1 mph - N/A   Clear
7:55 PM 37.6 °F 31.0 °F 29.3 °F 72% 30.00 in 10.0 mi NE 9.2 mph - N/A   Clear
8:15 PM 37.6 °F 30.5 °F 28.9 °F 71% 29.98 in 10.0 mi NE 10.4 mph - N/A   Clear
8:35 PM 37.6 °F 29.6 °F 28.4 °F 69% 29.96 in 10.0 mi ENE 12.7 mph - N/A   Clear
8:55 PM 37.6 °F 31.0 °F 28.0 °F 68% 29.98 in 10.0 mi ENE 9.2 mph - N/A   Clear
9:15 PM 37.6 °F - 27.7 °F 67% 30.01 in 10.0 mi Calm Calm - N/A   Clear
9:35 PM 35.1 °F 29.3 °F 27.0 °F 72% 30.01 in 10.0 mi ENE 6.9 mph - N/A   Clear
9:55 PM 35.1 °F 29.3 °F 27.7 °F 74% 30.00 in 10.0 mi NE 6.9 mph - N/A   Clear
10:15 PM 36.5 °F 33.9 °F 28.6 °F 73% 30.01 in 10.0 mi ENE 3.5 mph - N/A   Clear
10:35 PM 35.1 °F 31.0 °F 28.0 °F 76% 29.99 in 10.0 mi NNE 4.6 mph - N/A   Clear
10:55 PM 35.1 °F 29.3 °F 28.6 °F 77% 29.98 in 10.0 mi NNE 6.9 mph - N/A   Clear
11:15 PM 35.1 °F 30.1 °F 28.2 °F 76% 29.96 in 10.0 mi NNE 5.8 mph - N/A   Clear
11:35 PM 35.1 °F 29.3 °F 27.9 °F 75% 29.95 in 10.0 mi ENE 6.9 mph - N/A   Clear
11:55 PM 35.2 °F 28.8 °F 27.7 °F 74% 29.94 in 10.0 mi ENE 8.1 mph - N/A   Clear